P/2005 JQ5 (Catalina)

Epoch 2005 July 9.0 TT = JDT 2453560.5  

T 2005 July 28.03395 TT                                 Nakano

q   0.8255880            (2000.0)            P               Q

n   0.22283577     Peri.  222.68376     +0.74614746     +0.65841969

a   2.6945078      Node    95.86136     -0.58094979     +0.71631288

e   0.6936034      Incl.    5.69588     -0.32520965     +0.23103977

P   4.42 (+/- 0.02 day)

From 575 observations 2005 May 6-Nov. 21, mean residual 0".59.

Residuals in seconds of arc 

2005/                     050518 198  0.4-  0.4+    050602 233  0.8+  0.2+  

050506 703  1.0-  0.2-    050518 A06  1.4+  1.0-    050602 233  0.5+  0.5-  

050506 703  0.7-  0.5-    050518 213  0.5+  0.2+    050602 233  1.9+  0.6-  

050506 703  0.1+  0.0     050518 213  0.2+  0.1+    050602 J76  0.2+  0.1+  

050506 703  0.2-  0.0     050518 A17  0.1-  0.0     050602 J76  0.1+  0.1+  

050506 703  0.9-  1.0-    050518 213  0.1+  0.5+    050602 J76  0.1+  0.0   

050506 703  0.4-  1.0-    050518 213  0.3+  0.4+    050602 J97  1.3-  0.8+  

050506 703  0.0   0.5-    050518 A06  1.3+  1.0-    050602 147  0.3-  0.3+  

050506 A50  0.3+  0.5+    050518 A17  0.0   0.3+    050602 147  0.1-  0.0   

050506 A50  0.3+  0.7+    050518 A17  0.2-  0.1+    050602 147  0.2-  0.1+  

050506 A50  0.0   0.4+    050519 A61  1.5+  1.6-    050602 147  0.3-  0.1+  

050506 A50  0.1+  0.5+    050519 A61  0.7+  0.1+    050603 699 (5.6+  5.2-) 

050506 108  0.8-  1.9-    050519 A61  1.2-  0.2-    050603 699 (2.9+  2.7-) 

050506 A50  0.3+  0.4+    050519 A61  1.0-  0.4+    050603 699  1.8+  1.5-  

050506 108  1.4-  1.8-    050519 A61  0.2-  0.4-    050603 699 (5.0+  5.5-) 

050506 108  0.6-  0.1-    050519 703  0.7-  0.7-    050603 157  0.0   0.1+  

050506 J87  0.3+  0.4-    050519 703 (1.6+  2.1-)   050603 157  0.2-  0.1+  

050506 J87  0.2-  0.1-    050519 703  0.8+  1.3-    050603 157  0.0   0.1-  

050506 J87  0.3-  0.3+    050519 048  0.6+  0.1-    050603 157  0.2-  0.6+  

050506 A06  0.2+  0.3+    050519 048  1.3+  0.1-    050603 157  0.5-  0.1+  

050506 A06  0.3+  0.6-    050519 048  0.1+  0.0     050603 157  0.3+  0.2-  

050506 A06  0.1+  0.0     050519 048  0.5+  0.5-    050603 J78  1.3+  0.8+  

050507 176  0.2-  0.0     050519 048  1.6+  0.2-    050603 J78  0.3+  0.5+  

050507 176  0.3-  0.1+    050519 557  0.1-  0.3-    050603 J78  0.3-  0.7+  

050507 176  0.3-  0.1+    050519 557  0.4-  0.3-    050603 939  0.5+  0.5-  

050507 A06  0.2-  0.4+    050519 557  0.2+  0.1+    050603 939  0.3+  0.3-  

050507 176  0.3-  0.1+    050519 557  0.5-  0.5-    050603 939  0.2-  0.2-  

050507 176  0.3-  0.1+    050519 557  0.2-  0.2+    050604 360  0.0   0.3+  

050507 A06  0.1+  0.8-    050519 557  0.4-  0.4-    050604 360  0.3-  0.4+  

050507 A61  0.1+  0.5-    050519 203  0.5-  0.4-    050604 360  0.3-  0.3+  

050507 A61  0.0   0.4-    050519 203  0.3-  0.1+    050604 J78  0.7+  0.3+  

050507 A61  0.2-  0.2+    050519 213  0.3+  0.6+    050604 J78  1.1+  0.4+  

050507 A61  0.6+  0.5-    050519 213  0.5+  0.6+    050604 J78  1.1+  0.7+  

050507 A61  0.3+  0.9-    050519 213  0.0   0.4+    050605 A01  0.5+  1.9-  

050507 A61  0.3+  0.4+    050520 I77  0.1-  0.6-    050605 A01 (2.8+  1.1-) 

050507 I77  0.3-  0.0     050520 I77  0.0   0.3-    050605 340  0.5+  0.7-  

050507 I77  0.2-  0.1+    050520 644  0.0   0.1+    050605 340  0.2+  0.2-  

050507 493  0.1-  0.3+    050520 644  0.0   0.1+    050605 340  0.3+  1.1-  

050507 493  0.1-  0.3+    050520 644  0.0   0.1-    050605 349  0.4+  0.5-  

050507 I77  0.2-  0.1+    050520 644  0.0   0.0     050605 349  0.1-  0.3-  

050507 493  0.1-  0.3+    050520 644  0.0   0.1-    050605 349  0.3-  0.1-  

050507 717  0.3+  0.5-    050520 644  0.2-  0.1+    050605 J97  0.8+  0.3-  

050507 717  0.2-  0.0     050520 H45  0.3-  0.6-    050605 945  1.1-  1.0+  

050507 717  0.0   0.3-    050520 H45  0.5+  0.5-    050605 945  1.2-  0.8+  

050507 703  0.5-  0.7-    050520 A06  1.2+  0.9-    050605 945  0.6-  0.3+  

050507 703  0.7+  1.4-    050520 A06  1.1+  0.7-    050605 945  1.0-  0.3+  

050507 703  0.6-  0.2-    050520 A06  1.0+  0.1-    050605 945  0.7-  0.8+  

050507 703  0.5-  0.0     050521 932  0.1-  0.2+    050606 372  1.6+  0.3+  

050507 G96  0.4-  0.3-    050521 932  0.1-  0.2+    050606 D88  1.2+  0.8-  

050507 G96  0.6-  0.3-    050521 932  0.4-  0.2-    050606 D88  1.5+  0.5-  

050507 G96  0.3-  0.3-    050524 198  0.0   0.3+    050606 D83  0.8-  0.8+  

050507 G96  0.4-  0.2-    050524 198  0.1-  0.3+    050606 D83  1.2+  0.9+  

050507 G96  0.4-  0.2-    050524 198  0.0   0.3+    050606 D83  0.1-  1.7+  

050507 G96  0.2+  0.1-    050524 198  0.1+  0.4+    050606 D83  0.9+  0.0   

050507 G96  0.2-  0.3-    050524 198  0.1+  0.4+    050606 J76  1.7-  0.2+  

050507 G96  0.1+  0.6+    050525 I77  0.1-  0.4-    050606 J76  1.8-  0.0   

050507 854  0.4+  1.0+    050525 I77  0.1+  0.5+    050606 J76  1.5-  0.0   

050507 854  0.5+  0.8+    050525 I77  0.1-  0.1+    050606 J78  0.2+  0.4+  

050507 854  0.3+  0.6+    050525 349  0.9+  0.5-    050606 J78  0.0   0.5+  

050507 322  0.5+  0.0     050525 349  0.9+  1.0-    050606 J78  0.2+  0.5+  

050507 322  0.6+  0.9+    050525 349  0.7+  1.1-    050606 945 (2.0-  0.6+) 

050507 322  0.3+  0.5+    050525 595  0.3+  0.2+    050606 945 (2.0-  0.6+) 

050507 108  0.1-  1.1-    050525 595  0.0   0.1+    050606 945 (2.1-  0.7+) 

050507 108  1.0-  1.4-    050525 151  0.1+  0.4+    050606 945  1.3-  0.5+  

050507 108  0.5+  0.4-    050525 595  0.4+  0.5+    050606 945  1.8-  0.9+  

050507 108  1.4+  0.7-    050525 151  0.1-  0.3+    050606 I77  0.2+  1.4-  

050507 J95  0.2-  0.2-    050525 151  0.0   0.3+    050606 I77  0.1-  0.2-  

050507 J95  0.2-  0.1-    050525 151  0.1+  0.3+    050607 703 (2.3+  2.4-) 

050507 J95  0.1-  0.1+    050525 595  0.1-  0.3+    050607 703 (3.8+  2.6-) 

050507 J95  0.0   0.2-    050525 151  0.3+  0.3+    050607 703 (5.4+  4.1-) 

050508 J95  0.1+  0.1+    050525 151  0.2+  0.4+    050607 703 (5.8+  5.4-) 

050508 A06  0.4+  0.7+    050525 595  1.1+  0.4-    050607 734  0.0   1.0-  

050508 A06  1.8+  0.4-    050525 203  1.0-  0.4-    050607 734  0.8+  1.0-  

050508 A06  1.7-  1.5+    050525 203  1.1-  0.3-    050607 734  1.0+  0.3+  

050509 J95  0.1-  0.1+    050525 J78  0.5+  0.9+    050607 734  0.3-  0.2+  

050509 951  0.1+  0.8+    050525 J78  1.4-  0.7-    050607 213  0.2-  0.5+  

050509 J95  0.1-  0.1-    050525 J78  0.2+  0.7+    050607 213  0.1-  0.1-  

050509 J95  0.0   0.1-    050526 340  0.5+  1.2+    050607 213  0.1-  0.0   

050509 951  0.1+  0.4+    050526 340 (2.0+  0.1-)   050607 203  0.8-  0.5+  

050509 951  0.1+  0.7+    050526 340  0.9-  0.3-    050607 170  0.1-  0.1-  

050509 932  0.2-  0.2+    050526 151  0.2+  0.1+    050607 170  0.6+  0.1-  

050509 932  0.2-  0.1+    050526 A06 (2.2+  0.7-)   050607 170  0.3-  0.2-  

050509 932  0.3-  0.0     050526 151  0.2+  0.0     050607 203  0.6-  0.0   

050509 198  0.0   0.5+    050526 A06 (2.2+  0.8-)   050608 945  1.9-  0.2-  

050509 198  0.1-  0.2+    050526 151  0.1+  0.0     050608 945  1.1-  0.1-  

050509 198  0.0   0.1+    050526 151  0.1+  0.2+    050608 945 (2.4-  1.0+) 

050509 198  0.0   0.1+    050526 A06 (2.1+  1.0-)   050608 945  1.9-  0.9+  

050510 932  0.1-  0.3+    050526 151  0.3+  0.3+    050608 945 (2.3-  0.7+) 

050510 932  0.3-  0.3+    050526 151  0.2+  0.3+    050608 J76  0.2+  0.4+  

050510 452  0.1+  0.9+    050526 203  0.1+  0.3+    050608 J76  0.1+  0.2+  

050510 932  0.3-  0.3+    050526 048  0.2-  0.0     050608 J76  0.3+  0.6+  

050510 452  0.2+  0.2+    050526 048  0.3-  0.1+    050609 J97 (2.7-  0.0 ) 

050510 452  0.1+  0.1+    050526 048  0.0   0.1+    050609 J97  0.4-  0.8-  

050510 452  0.1+  0.2+    050526 461  0.1-  0.5+    050609 J97  0.4+  0.2-  

050510 452  0.0   0.0     050526 048  0.3-  0.2+    050609 941  0.2+  0.0   

050510 734  0.2-  0.1+    050526 048  0.1+  0.2-    050609 941  0.0   0.1+  

050510 734  0.3-  0.2+    050526 461  0.2-  0.5+    050609 941  0.2-  0.1+  

050510 734  0.1+  0.0     050526 461  0.1-  0.6+    050609 941  0.2-  0.1+  

050510 H45  0.4-  0.6+    050526 461  0.3-  0.6+    050609 I77  1.7+  1.0-  

050510 H45  1.4+  0.1+    050526 461  0.1-  0.6+    050609 945  1.7-  0.2+  

050510 H45  0.8+  0.1-    050527 I77 (1.1+  2.3-)   050609 I77 (2.5+  1.3-) 

050510 H45  0.7-  0.6-    050527 I77 (0.4+  2.5-)   050609 I77  0.8-  0.4+  

050510 H45  0.5-  0.3-    050527 I77  1.3+  0.5-    050609 945 (2.1-  0.6-) 

050510 H45  0.7-  0.8-    050527 104  0.3+  0.5+    050609 I77  0.0   1.3-  

050510 649  0.2-  0.3+    050527 104  0.1+  0.1-    050609 945  0.4-  0.3-  

050510 649  0.1-  0.2+    050527 104  0.3+  0.3+    050609 945 (3.0-  0.3+) 

050510 649  0.2-  0.1+    050527 104  0.4+  0.1-    050609 945 (2.6-  0.2+) 

050511 J95  0.2-  0.2-    050527 A06 (2.4+  1.3-)   050610 157  0.1+  0.1+  

050511 J95  0.0   0.2-    050527 A06 (2.2+  1.0-)   050610 157  0.2-  0.0   

050511 J95  0.1-  0.1-    050527 A06 (2.1+  0.8-)   050610 157  0.5-  0.0   

050511 699  1.0+  1.3+    050527 611  1.7+  0.9-    050610 157  0.7-  0.5+  

050511 699  0.5+  0.1-    050527 442  1.4-  0.0     050610 157  0.1+  0.0   

050511 699  0.3+  0.5+    050527 442  1.6-  0.0     050610 157  0.5-  0.1+  

050511 703  0.2-  0.7-    050527 442  1.1-  0.1-    050610 233  0.2+  0.2-  

050511 703  0.2-  0.1+    050527 442  1.4-  0.1+    050610 233  1.8+  1.0+  

050511 699  0.1+  0.8-    050527 611 (2.3+  2.0-)   050610 203  0.1+  0.5-  

050511 703  0.2-  0.8-    050527 611  1.1+  1.2-    050610 233  0.9+  0.5-  

050511 703  0.1+  0.6-    050527 147  0.9+  0.2+    050610 203  1.4+  0.5-  

050511 151  0.1-  0.1+    050527 147  0.9+  0.2+    050610 A06 (4.5+  1.2-) 

050511 151  0.1+  0.2-    050527 147  0.3-  0.2+    050610 A06 (4.5+  1.2-) 

050511 151  0.0   0.0     050527 147  0.0   0.0     050610 A06 (4.8+  1.2-) 

